Location: Unspecified
(40.7945°N, 111.1337°W)
Time: 02:38:55
(UTC-06:00)

Cosmos 2058 - Visible Passes

Search period start: 21 October 2017 00:00
Search period end: 31 October 2017 00:00
Orbit: 564 x 584 km, 82.5° (Epoch: 21 October)

Date Brightness Start Highest point End Pass type
(mag) Time Alt. Az. Time Alt. Az. Time Alt. Az.
21 Oct 3.4 19:28:08 10° NNW 19:32:15 63° W 19:36:20 10° S visible
22 Oct 4.1 19:31:31 10° NNW 19:35:30 45° W 19:39:27 10° SSW visible
23 Oct 4.8 19:34:58 10° NNW 19:38:44 34° W 19:42:27 10° SSW visible
24 Oct 5.4 19:38:31 10° NNW 19:41:57 25° W 19:45:20 10° SW visible
25 Oct 6.4 06:27:23 10° ESE 06:29:08 12° E 06:30:52 10° ENE visible
25 Oct 5.9 19:42:10 10° NW 19:45:08 19° W 19:48:04 10° SW visible
26 Oct 6.2 06:29:38 10° SE 06:32:17 16° E 06:34:56 10° NE visible
26 Oct 6.2 19:46:02 10° NW 19:48:18 14° W 19:50:34 10° WSW visible
27 Oct 5.8 06:32:15 10° SE 06:35:28 22° E 06:38:42 10° NE visible
27 Oct 6.6 19:50:29 10° WNW 19:51:27 11° W 19:52:26 10° W visible
28 Oct 5.2 06:35:04 10° SSE 06:38:40 28° E 06:42:17 10° NNE visible
29 Oct 4.6 06:38:00 10° SSE 06:41:53 38° E 06:45:47 10° NNE visible
30 Oct 3.9 06:41:03 10° S 06:45:07 51° E 06:49:12 10° NNE visible
